FW6908 Weather Reports


time (UTC)temp
C
wind
direction
speed
KPH
gust
KPH
rain 1hr
cm
rain 24hr
cm
rain mn
cm
humidity
%
barometer
mb
20260901024009 23 43 4.8 9.7 0.00 0.00 0.00 53 1014.8
20260901023505 23 35 1.6 8.0 0.00 0.00 0.00 52 1014.8
20260901023005 24 20 1.6 9.7 0.00 0.00 0.00 52 1014.9
20260901022505 24 59 1.6 9.7 0.00 0.00 0.00 51 1014.8
20260901022005 25 57 0.0 8.0 0.00 0.00 0.00 50 1014.8
20260901021505 24 53 1.6 8.0 0.00 0.00 0.00 50 1014.8
20260901021005 24 97 4.8 8.0 0.00 0.00 0.00 51 1014.8
20260901020505 24 56 1.6 8.0 0.00 0.00 0.00 51 1014.8
20260901020005 24 59 0.0 8.0 0.00 0.00 0.00 52 1014.7
20260901015508 23 33 1.6 9.7 0.00 0.00 0.00 52 1014.8
20260901015005 23 13 6.4 9.7 0.00 0.00 0.00 52 1014.8
20260901014503 23 18 3.2 8.0 0.00 0.00 0.00 52 1014.8
20260901014004 23 17 3.2 6.4 0.00 0.00 0.00 52 1014.9
20260901013501 24 26 3.2 6.4 0.00 0.00 0.00 52 1014.7
20260901013001 23 32 1.6 4.8 0.00 0.00 0.00 52 1014.8
20260901012501 23 50 0.0 8.0 0.00 0.00 0.00 52 1014.9
20260901012101 23 34 1.6 8.0 0.00 0.00 0.00 52 1014.9
20260901011600 24 30 3.2 8.0 0.00 0.00 0.00 51 1014.9
20260901011059 24 61 1.6 6.4 0.00 0.00 0.00 51 1014.9
20260901010559 24 63 1.6 8.0 0.00 0.00 0.00 50 1014.9
20260901010059 24 355 3.2 8.0 0.00 0.00 0.00 51 1014.8
20260901005558 24 5 1.6 12.9 0.00 0.00 0.00 50 1014.9
20260901005057 25 15 1.6 12.9 0.00 0.00 0.00 49 1014.9
20260901004615 25 5 0.0 12.9 0.00 0.00 0.00 49 1014.9
20260901004101 25 98 4.8 11.3 0.00 0.00 0.00 48 1015.0
20260901003559 25 55 6.4 12.9 0.00 0.00 0.00 48 1015.1
20260901003056 25 67 8.0 14.5 0.00 0.00 0.00 48 1015.0
20260901002555 25 55 8.0 16.1 0.00 0.00 0.00 48 1015.0
20260901002055 25 39 9.7 16.1 0.00 0.00 0.00 48 1015.0
20260901001559 25 38 8.0 14.5 0.00 0.00 0.00 48 1015.1
20260901001054 25 45 4.8 14.5 0.00 0.00 0.00 48 1015.1
20260901000556 25 55 9.7 14.5 0.00 0.00 0.00 48 1015.1
20260901000103 25 30 8.0 14.5 0.00 0.00 0.00 48 1015.1
20260831235553 25 44 9.7 14.5 0.00 0.00 0.00 48 1015.2
20260831235053 25 20 8.0 12.9 0.00 0.00 0.00 48 1015.2
20260831234552 25 11 8.0 14.5 0.00 0.00 0.00 48 1015.2
20260831234052 25 5 8.0 12.9 0.00 0.00 0.00 49 1015.3
20260831233551 24 16 8.0 9.7 0.00 0.00 0.00 49 1015.3
20260831233051 25 5 6.4 9.7 0.00 0.00 0.00 49 1015.3
20260831232548 25 19 4.8 9.7 0.00 0.00 0.00 48 1015.4
20260831232048 25 34 4.8 9.7 0.00 0.00 0.00 48 1015.4
20260831231546 25 20 4.8 8.0 0.00 0.00 0.00 47 1015.4
20260831231045 25 5 4.8 9.7 0.00 0.00 0.00 46 1015.4
20260831230547 26 44 4.8 11.3 0.00 0.00 0.00 45 1015.6
20260831230046 26 82 4.8 16.1 0.00 0.00 0.00 45 1015.6
20260831225544 26 63 9.7 16.1 0.00 0.00 0.00 45 1015.5
20260831225044 26 61 9.7 16.1 0.00 0.00 0.00 44 1015.6
20260831224544 26 67 9.7 16.1 0.00 0.00 0.00 44 1015.6
20260831224044 26 76 8.0 16.1 0.00 0.00 0.00 44 1015.7
20260831223543 26 72 8.0 12.9 0.00 0.00 0.00 44 1015.7
20260831223042 26 79 6.4 12.9 0.00 0.00 0.00 44 1015.7
20260831222542 26 90 8.0 12.9 0.00 0.00 0.00 44 1015.8
20260831222040 26 90 6.4 14.5 0.00 0.00 0.00 45 1015.8
20260831221540 26 95 8.0 14.5 0.00 0.00 0.00 45 1015.9
20260831221039 26 103 4.8 12.9 0.00 0.00 0.00 46 1016.0
20260831220539 25 74 6.4 11.3 0.00 0.00 0.00 46 1016.0
20260831220039 25 46 4.8 6.4 0.00 0.00 0.00 46 1016.0
20260831215539 25 48 1.6 8.0 0.00 0.00 0.00 47 1016.0
20260831215038 25 9 3.2 8.0 0.00 0.00 0.00 47 1016.0
20260831214540 25 44 0.0 6.4 0.00 0.00 0.00 47 1015.9
20260831214039 25 44 3.2 8.0 0.00 0.00 0.00 47 1016.0
20260831213536 26 12 4.8 9.7 0.00 0.00 0.00 46 1016.0
20260831213034 26 25 6.4 11.3 0.00 0.00 0.00 46 1016.1
20260831212534 26 344 4.8 12.9 0.00 0.00 0.00 44 1016.0
20260831212032 26 76 3.2 12.9 0.00 0.00 0.00 43 1016.0
20260831211532 26 63 4.8 9.7 0.00 0.00 0.00 43 1016.0
20260831211030 26 56 4.8 9.7 0.00 0.00 0.00 44 1016.1
20260831210530 26 42 4.8 8.0 0.00 0.00 0.00 45 1016.1
20260831210029 26 5 4.8 6.4 0.00 0.00 0.00 44 1016.1
20260831205529 26 346 1.6 4.8 0.00 0.00 0.00 44 1016.1
20260831205030 27 344 1.6 4.8 0.00 0.00 0.00 44 1016.1
20260831204529 27 355 0.0 4.8 0.00 0.00 0.00 44 1016.1
20260831204028 27 355 3.2 8.0 0.00 0.00 0.00 44 1016.0
20260831203528 27 355 3.2 8.0 0.00 0.00 0.00 44 1016.0
20260831203027 27 355 4.8 9.7 0.00 0.00 0.00 43 1016.1
20260831202527 27 5 3.2 9.7 0.00 0.00 0.00 43 1016.1
20260831202027 27 48 6.4 9.7 0.00 0.00 0.00 43 1016.1
20260831201527 27 30 4.8 8.0 0.00 0.00 0.00 44 1016.1
20260831201027 27 66 1.6 9.7 0.00 0.00 0.00 44 1016.1
20260831200527 27 70 4.8 11.3 0.00 0.00 0.00 44 1016.1
20260831200027 27 78 6.4 16.1 0.00 0.00 0.00 44 1016.1
20260831195527 27 63 6.4 16.1 0.00 0.00 0.00 44 1016.1
20260831195027 27 79 4.8 12.9 0.00 0.00 0.00 44 1016.1
20260831194526 27 38 3.2 14.5 0.00 0.00 0.00 44 1016.0
20260831194028 27 29 4.8 14.5 0.00 0.00 0.00 44 1016.0
20260831193527 27 5 0.0 4.8 0.00 0.00 0.00 44 1016.0
20260831193037 27 81 0.0 6.4 0.00 0.00 0.00 44 1016.0
20260831192525 27 80 0.0 8.0 0.00 0.00 0.00 44 1016.0
20260831192028 27 80 3.2 8.0 0.00 0.00 0.00 44 1016.0
20260831191525 27 114 3.2 14.5 0.00 0.00 0.00 44 1016.0
20260831191027 27 123 3.2 14.5 0.00 0.00 0.00 44 1016.0
20260831190525 27 134 3.2 17.7 0.00 0.00 0.00 43 1016.0
20260831190039 27 102 4.8 17.7 0.00 0.00 0.00 43 1015.9
20260831185525 27 88 9.7 17.7 0.00 0.00 0.00 43 1015.9
20260831185027 27 69 8.0 16.1 0.00 0.00 0.00 43 1015.7
20260831184524 27 95 8.0 16.1 0.00 0.00 0.00 43 1015.7
20260831184026 27 90 8.0 16.1 0.00 0.00 0.00 43 1015.5
20260831183524 27 75 4.8 16.1 0.00 0.00 0.00 43 1015.5
20260831183023 27 70 6.4 20.9 0.00 0.00 0.00 42 1015.4
20260831182523 27 72 11.3 20.9 0.00 0.00 0.00 42 1015.4
20260831182023 27 68 8.0 17.7 0.00 0.00 0.00 42 1015.3
20260831181524 28 60 9.7 17.7 0.00 0.00 0.00 42 1015.3
20260831181023 28 82 8.0 16.1 0.00 0.00 0.00 42 1015.3
20260831180522 28 72 6.4 17.7 0.00 0.00 0.00 42 1015.2
20260831180022 28 59 11.3 17.7 0.00 0.00 0.00 41 1015.2
20260831175622 28 71 11.3 20.9 0.00 0.00 0.00 41 1015.3
20260831175022 28 92 9.7 20.9 0.00 0.00 0.00 41 1015.2
20260831174521 28 62 11.3 20.9 0.00 0.00 0.00 41 1015.2
20260831174021 28 90 12.9 25.7 0.00 0.00 0.00 41 1015.1
20260831173521 28 67 12.9 25.7 0.00 0.00 0.00 41 1015.1
20260831173023 28 33 14.5 25.7 0.00 0.00 0.00 41 1015.2
20260831172521 28 67 9.7 22.5 0.00 0.00 0.00 40 1015.1
20260831172020 28 69 8.0 24.1 0.00 0.00 0.00 40 1015.0
20260831171520 29 65 11.3 22.5 0.00 0.00 0.00 40 1014.9
20260831171020 29 78 11.3 20.9 0.00 0.00 0.00 40 1014.9
20260831170520 29 59 9.7 22.5 0.00 0.00 0.00 40 1015.0
20260831170021 29 101 11.3 22.5 0.00 0.00 0.00 39 1015.0
20260831165520 29 82 11.3 25.7 0.00 0.00 0.00 39 1015.0
20260831165019 29 74 12.9 25.7 0.00 0.00 0.00 39 1015.0
20260831164521 30 77 12.9 27.4 0.00 0.00 0.00 39 1015.1
20260831164019 30 61 14.5 27.4 0.00 0.00 0.00 39 1015.1
20260831163519 30 75 12.9 24.1 0.00 0.00 0.00 39 1015.1
20260831163019 30 76 12.9 20.9 0.00 0.00 0.00 39 1015.1
20260831162519 30 83 8.0 25.7 0.00 0.00 0.00 39 1015.1
20260831162017 30 57 16.1 24.1 0.00 0.00 0.00 39 1015.1
20260831161517 31 90 12.9 20.9 0.00 0.00 0.00 38 1015.1
20260831161017 31 138 8.0 20.9 0.00 0.00 0.00 38 1015.1
20260831160517 31 39 4.8 20.9 0.00 0.00 0.00 38 1015.0
20260831160016 31 121 11.3 19.3 0.00 0.00 0.00 38 1015.2
20260831155518 31 75 11.3 25.7 0.00 0.00 0.00 38 1015.1
20260831155016 31 105 14.5 27.4 0.00 0.00 0.00 38 1015.0
20260831154524 31 61 12.9 19.3 0.00 0.00 0.00 38 1015.1
20260831154014 31 84 3.2 20.9 0.00 0.00 0.00 38 1014.9
20260831153514 31 94 11.3 20.9 0.00 0.00 0.00 38 1015.0
20260831153015 31 47 9.7 20.9 0.00 0.00 0.00 38 1015.0
20260831152511 31 78 11.3 25.7 0.00 0.00 0.00 38 1014.9
20260831152011 31 119 16.1 24.1 0.00 0.00 0.00 38 1014.9
20260831151510 32 112 16.1 24.1 0.00 0.00 0.00 37 1014.9
20260831151011 32 65 11.3 20.9 0.00 0.00 0.00 37 1014.9
20260831150507 32 144 9.7 24.1 0.00 0.00 0.00 37 1014.8
20260831150008 32 82 16.1 25.7 0.00 0.00 0.00 38 1014.8
20260831145507 32 43 12.9 25.7 0.00 0.00 0.00 37 1014.8
20260831145012 32 59 8.0 20.9 0.00 0.00 0.00 37 1014.8
20260831144507 32 11 6.4 20.9 0.00 0.00 0.00 38 1014.8
20260831144107 32 103 12.9 22.5 0.00 0.00 0.00 38 1015.0
20260831143507 32 83 14.5 22.5 0.00 0.00 0.00 38 1015.0
20260831143008 32 45 6.4 16.1 0.00 0.00 0.00 38 1015.0
20260831142506 32 132 4.8 20.9 0.00 0.00 0.00 38 1014.9
20260831142006 32 101 6.4 20.9 0.00 0.00 0.00 38 1014.9
20260831141505 32 111 9.7 19.3 0.00 0.00 0.00 38 1015.0
20260831141008 32 134 4.8 22.5 0.00 0.00 0.00 38 1015.2
20260831140505 32 82 12.9 22.5 0.00 0.00 0.00 38 1015.1
20260831140007 32 107 6.4 30.6 0.00 0.00 0.00 38 1015.1
20260831135505 32 80 19.3 30.6 0.00 0.00 0.00 38 1014.9
20260831135005 32 167 16.1 24.1 0.00 0.00 0.00 39 1015.0
20260831134513 32 158 11.3 20.9 0.00 0.00 0.00 39 1015.0
20260831134005 32 110 9.7 24.1 0.00 0.00 0.00 39 1015.0
20260831133504 32 96 11.3 25.7 0.00 0.00 0.00 38 1015.0
20260831133010 32 117 9.7 22.5 0.00 0.00 0.00 38 1014.9
20260831132503 32 109 12.9 22.5 0.00 0.00 0.00 38 1014.9
20260831132004 32 130 9.7 24.1 0.00 0.00 0.00 39 1014.9
20260831131503 32 147 12.9 32.2 0.00 0.00 0.00 40 1014.9
20260831131004 32 140 14.5 32.2 0.00 0.00 0.00 40 1014.9
20260831130503 32 111 11.3 25.7 0.00 0.00 0.00 39 1015.0
20260831130005 32 101 9.7 24.1 0.00 0.00 0.00 39 1014.9
20260831125502 32 115 12.9 24.1 0.00 0.00 0.00 39 1015.0
20260831125001 33 93 4.8 24.1 0.00 0.00 0.00 39 1015.0
20260831124500 32 115 16.1 32.2 0.00 0.00 0.00 39 1015.1
20260831124001 33 109 16.1 30.6 0.00 0.00 0.00 38 1015.1
20260831123600 33 105 6.4 24.1 0.00 0.00 0.00 38 1015.1
20260831123102 33 102 14.5 30.6 0.00 0.00 0.00 38 1015.2
20260831122603 33 82 16.1 30.6 0.00 0.00 0.00 38 1015.3
20260831122059 32 115 16.1 27.4 0.00 0.00 0.00 39 1015.2
20260831121621 32 110 16.1 29.0 0.00 0.00 0.00 38 1015.2
20260831121059 33 123 16.1 29.0 0.00 0.00 0.00 38 1015.3
20260831120600 33 84 11.3 29.0 0.00 0.00 0.00 39 1015.3
20260831120058 33 101 11.3 24.1 0.00 0.00 0.00 38 1015.3
20260831115557 33 105 12.9 24.1 0.00 0.00 0.00 39 1015.3
20260831115059 33 113 9.7 29.0 0.00 0.00 0.00 39 1015.4
20260831114556 32 91 12.9 29.0 0.00 0.00 0.00 39 1015.5
20260831114056 33 124 12.9 27.4 0.00 0.00 0.00 39 1015.6
20260831113556 33 130 6.4 24.1 0.00 0.00 0.00 39 1015.6
20260831113105 33 142 14.5 24.1 0.00 0.00 0.00 38 1015.6
20260831112554 33 57 11.3 22.5 0.00 0.00 0.00 39 1015.8
20260831112051 32 72 8.0 17.7 0.00 0.00 0.00 40 1015.8
20260831111553 33 129 8.0 19.3 0.00 0.00 0.00 39 1015.8
20260831111049 32 60 9.7 22.5 0.00 0.00 0.00 40 1015.9
20260831110548 32 103 12.9 22.5 0.00 0.00 0.00 39 1016.0
20260831110048 32 115 11.3 24.1 0.00 0.00 0.00 40 1016.0
20260831105547 32 88 16.1 24.1 0.00 0.00 0.00 40 1016.2
20260831105048 32 147 11.3 25.7 0.00 0.00 0.00 40 1016.2
20260831104555 32 104 17.7 25.7 0.00 0.00 0.00 40 1016.2
20260831104045 32 120 16.1 24.1 0.00 0.00 0.00 39 1016.2
20260831103548 32 115 11.3 24.1 0.00 0.00 0.00 40 1016.4
20260831103043 32 51 14.5 29.0 0.00 0.00 0.00 40 1016.4
20260831102546 32 94 17.7 29.0 0.00 0.00 0.00 39 1016.4
20260831102042 32 116 11.3 22.5 0.00 0.00 0.00 40 1016.5
20260831101545 32 65 4.8 20.9 0.00 0.00 0.00 40 1016.6
20260831101041 32 69 9.7 27.4 0.00 0.00 0.00 40 1016.6
20260831100544 32 116 16.1 27.4 0.00 0.00 0.00 41 1016.6
20260831100039 32 90 11.3 27.4 0.00 0.00 0.00 41 1016.6
20260831095539 31 128 14.5 27.4 0.00 0.00 0.00 41 1016.6
20260831095038 31 96 12.9 22.5 0.00 0.00 0.00 41 1016.7
20260831094543 32 103 12.9 22.5 0.00 0.00 0.00 41 1016.8
20260831094036 32 68 6.4 27.4 0.00 0.00 0.00 42 1016.8
20260831093536 31 61 12.9 27.4 0.00 0.00 0.00 42 1016.9
20260831093047 31 88 11.3 27.4 0.00 0.00 0.00 43 1016.9
20260831092534 31 95 16.1 27.4 0.00 0.00 0.00 42 1016.9
20260831092031 31 5 8.0 22.5 0.00 0.00 0.00 42 1017.0
20260831091541 31 104 6.4 20.9 0.00 0.00 0.00 42 1017.0
20260831091031 31 55 9.7 25.7 0.00 0.00 0.00 42 1017.0
20260831090529 31 101 14.5 25.7 0.00 0.00 0.00 43 1017.1
20260831090027 31 128 8.0 22.5 0.00 0.00 0.00 43 1017.1
20260831085526 31 14 12.9 22.5 0.00 0.00 0.00 43 1017.2
20260831085024 31 50 14.5 22.5 0.00 0.00 0.00 44 1017.2
20260831084555 31 30 11.3 22.5 0.00 0.00 0.00 44 1017.2
20260831084021 31 115 11.3 19.3 0.00 0.00 0.00 44 1017.2
20260831083520 30 62 8.0 22.5 0.00 0.00 0.00 44 1017.3
20260831083019 30 65 11.3 22.5 0.00 0.00 0.00 44 1017.3
20260831082518 30 47 11.3 20.9 0.00 0.00 0.00 45 1017.3
20260831082019 30 72 6.4 25.7 0.00 0.00 0.00 46 1017.3
20260831081516 30 31 16.1 29.0 0.00 0.00 0.00 45 1017.4
20260831081015 30 75 16.1 29.0 0.00 0.00 0.00 46 1017.3
20260831080512 30 110 14.5 25.7 0.00 0.00 0.00 46 1017.2
20260831080032 30 85 8.0 24.1 0.00 0.00 0.00 47 1017.2
20260831075510 30 55 16.1 30.6 0.00 0.00 0.00 47 1017.2
20260831075009 30 61 19.3 30.6 0.00 0.00 0.00 46 1017.3
20260831074521 30 92 11.3 24.1 0.00 0.00 0.00 47 1017.2
20260831074006 29 117 8.0 25.7 0.00 0.00 0.00 48 1017.2
20260831073508 29 90 19.3 25.7 0.00 0.00 0.00 48 1017.2
20260831073003 29 56 14.5 25.7 0.00 0.00 0.00 49 1017.2
20260831072505 29 74 12.9 29.0 0.00 0.00 0.00 49 1017.2
20260831072100 28 87 16.1 29.0 0.00 0.00 0.00 49 1017.2
20260831071610 28 64 12.9 29.0 0.00 0.00 0.00 50 1017.2
20260831071057 28 88 19.3 30.6 0.00 0.00 0.00 49 1017.2
20260831070556 28 93 11.3 30.6 0.00 0.00 0.00 49 1017.1
20260831070055 28 98 17.7 27.4 0.00 0.00 0.00 49 1017.2
20260831065555 28 85 12.9 27.4 0.00 0.00 0.00 49 1017.1
20260831065052 28 107 11.3 24.1 0.00 0.00 0.00 49 1017.0
20260831064556 28 104 9.7 22.5 0.00 0.00 0.00 50 1016.9
20260831064049 28 99 11.3 20.9 0.00 0.00 0.00 52 1017.0
20260831063547 27 58 12.9 17.7 0.00 0.00 0.00 52 1017.1
20260831063102 27 115 6.4 17.7 0.00 0.00 0.00 54 1017.0
20260831062544 27 69 11.3 17.7 0.00 0.00 0.00 54 1017.0
20260831062043 27 117 8.0 22.5 0.00 0.00 0.00 55 1017.0
20260831061541 27 101 14.5 22.5 0.00 0.00 0.00 54 1017.1
20260831061039 27 100 12.9 22.5 0.00 0.00 0.00 54 1017.2
20260831060539 26 116 8.0 24.1 0.00 0.00 0.00 54 1017.2
20260831060037 26 73 9.7 24.1 0.00 0.00 0.00 55 1017.2
20260831055535 26 128 14.5 24.1 0.00 0.00 0.00 55 1017.2
20260831055036 26 84 14.5 24.1 0.00 0.00 0.00 56 1017.3
20260831054533 26 103 11.3 24.1 0.00 0.00 0.00 57 1017.3
20260831054031 26 88 12.9 27.4 0.00 0.00 0.00 57 1017.1
20260831053529 26 76 12.9 27.4 0.00 0.00 0.00 58 1017.0
20260831053028 26 98 17.7 24.1 0.00 0.00 0.00 58 1017.1
20260831052526 26 96 14.5 29.0 0.00 0.00 0.00 59 1017.0
20260831052024 25 67 14.5 29.0 0.00 0.00 0.00 59 1017.1
20260831051533 25 91 16.1 24.1 0.00 0.00 0.00 60 1017.1
20260831051021 25 83 12.9 22.5 0.00 0.00 0.00 60 1017.0
20260831050526 25 92 16.1 22.5 0.00 0.00 0.00 60 1016.9
20260831050019 25 69 12.9 22.5 0.00 0.00 0.00 60 1017.0
20260831045521 25 99 9.7 20.9 0.00 0.00 0.00 58 1017.0
20260831045016 25 84 4.8 12.9 0.00 0.00 0.00 56 1016.9
20260831044517 25 76 3.2 9.7 0.00 0.00 0.00 55 1016.8
20260831044014 25 19 6.4 12.9 0.00 0.00 0.00 55 1016.9
20260831043512 25 58 4.8 12.9 0.00 0.00 0.00 54 1016.9
20260831043011 25 15 3.2 9.7 0.00 0.00 0.00 54 1016.9
20260831042510 24 45 3.2 8.0 0.00 0.00 0.00 54 1016.8
20260831042009 24 58 3.2 12.9 0.00 0.00 0.00 55 1016.8
20260831041511 23 38 6.4 12.9 0.00 0.00 0.00 55 1016.8
20260831041009 23 36 4.8 11.3 0.00 0.00 0.00 55 1016.7
20260831040506 23 28 4.8 9.7 0.00 0.00 0.00 55 1016.8
20260831040015 23 38 4.8 9.7 0.00 0.00 0.00 55 1016.8
20260831035505 23 13 4.8 9.7 0.00 0.00 0.00 55 1016.8
20260831035005 23 5 6.4 9.7 0.00 0.00 0.00 55 1016.9
20260831034506 24 23 4.8 8.0 0.00 0.00 0.00 55 1016.8
20260831034005 24 17 3.2 8.0 0.00 0.00 0.00 54 1016.8
20260831033504 24 17 3.2 9.7 0.00 0.00 0.00 53 1016.9
20260831033007 25 36 4.8 17.7 0.00 0.00 0.00 52 1016.8
20260831032504 25 86 11.3 17.7 0.00 0.00 0.00 51 1016.8
20260831032003 25 79 9.7 16.1 0.00 0.00 0.00 51 1016.9
20260831031503 25 74 3.2 11.3 0.00 0.00 0.00 51 1016.8
20260831031003 25 101 4.8 11.3 0.00 0.00 0.00 51 1016.8
20260831030503 25 73 6.4 19.3 0.00 0.00 0.00 50 1016.7
20260831030003 26 102 11.3 22.5 0.00 0.00 0.00 50 1016.7
20260831025502 25 66 12.9 22.5 0.00 0.00 0.00 50 1016.7
20260831025002 25 143 12.9 20.9 0.00 0.00 0.00 50 1016.6
20260831024502 25 82 11.3 22.5 0.00 0.00 0.00 51 1016.6